Rbgn^[z[y[W
メイン
   新天体発見情報
     Comet C/2024 G7 (ATLAS)
投稿するにはまず登録を

スレッド表示 | 新しいものから 前のトピック | 次のトピック | 下へ
投稿者 スレッド
佐藤裕久
投稿日時: 2024-5-24 14:40
モデレータ
登録日: 2005-6-12
居住地: 日本
投稿: 2559
オンライン
Comet C/2024 G7 (ATLAS)

4月3日、チリ Rio Hurtadoにある小惑星地球衝突最終警報システム Asteroid Terrestrial-impact Last 
Alert System (ATLAS)調査プログラムのコースに0.5-m Schmidt 反射望遠鏡で得た、CCD画像から見かけ上
の小惑星状が発見された。
小惑星センターのPCCP webpageに公表後、佐藤英貴氏(東京都文京区, 4月7.4日UT、60-秒露出8枚のスタッ
ク, Deep Sky Chile" 0.51-m f/6.8 アストログラフ, Rio Hurtado, チリ, 遠隔操作: 中程度に集光した7" 
のコマが見えるが尾はなかった。3".6の円形範囲で測定した光度は19.1等であった。 5月7.8日、60-秒露出
8枚のスタック, 0.51-m f/6.8 アストログラフ, Siding Spring, NSW, オーストラリア, 遠隔操作:強く
集光した7" のコマが見えるが尾はなかった。6".6の円形範囲で測定した光度は118.6等であった)らCCD位置
観測者によって彗星状と観測された。

彗星機能の報告は次のとおり、

OC   Date        Reporter           Coma    Tail    PA          Exposures
Q62  2024-04-21  T. Prystavski     12"                           10x120s
Q62  2024-05-07  H. Sato            7"                            8x60s

発見位置は次のとおり、

     2024 UT             R.A. (2000) Decl.       Mag.
     Apr.  3.34729   22 07 44.95   -61 32 18.8   19.4
           3.37231   22 07 45.75   -61 32 28.8   19.4
           3.37508   22 07 45.79   -61 32 31.1   19.2
           3.39451   22 07 46.29   -61 32 39.2   19.4
           6.33363   22 09 00.30   -61 52 48.5   19.5
           6.34336   22 09 00.70   -61 52 52.5   19.0
           6.34613   22 09 00.68   -61 52 54.6   19.4
           6.35591   22 09 00.88   -61 52 58.1   19.2
           6.35868   22 09 00.93   -61 52 59.8   17.9
           6.41272   22 09 02.29   -61 53 23.9   19.2

MPCの双曲線軌道要素、位置推算表は次のとおり、

Orbital elements:
    C/2024 G7 (ATLAS)                                                           
Epoch 2025 Feb. 14.0 TT = JDT 2460720.5                                         
T 2025 Feb. 8.65311 TT                                  Rudenko                 
q   6.0329419            (2000.0)            P               Q                  
z  -0.0000037      Peri.  289.47361     -0.19690411     -0.96811164             
 +/-0.0000000      Node   191.93762     -0.34339468     -0.07986847             
e   1.0000225      Incl.  131.51519     -0.91831850     +0.23744656             
From 45 observations 2024 Apr. 3-May 11, mean residual 0".4.                    
                                                                                
Ephemeris:
Date    TT    R. A. (2000) Decl.     Delta      r    Elong.  Phase   m1
2024 04 21    22 13 42.3 -63 50 56   6.3521  6.3710    86.5     9.1  19.1
...
2024 05 06    22 14 54.5 -66 21 17   6.1324  6.3384    97.2     9.1  19.0
...
2024 05 14    22 13 18.9 -67 52 41   6.0226  6.3217   102.7     9.0  18.9
...
2024 05 20    22 10 43.0 -69 05 29   5.9457  6.3094   106.6     8.8  18.9
2024 05 21    22 10 08.8 -69 17 55   5.9334  6.3073   107.2     8.8  18.9
2024 05 22    22 09 32.0 -69 30 26   5.9212  6.3053   107.8     8.8  18.9
...
2024 05 28    22 04 51.3 -70 46 50   5.8519  6.2934   111.4     8.6  18.8
...
2024 06 05    21 55 26.0 -72 30 44   5.7704  6.2778   115.7     8.4  18.8
...
2024 06 20    21 23 57.1 -75 38 50   5.6567  6.2498   121.6     8.0  18.7

(MPEC 2024-K41、CBET 5397)

スレッド表示 | 新しいものから 前のトピック | 次のトピック | トップ

投稿するにはまず登録を
 
© 1999 Tsutomu Seki.